Station Historical Data
Daily Summary for January 18, 2018 Units:  English    Metric   Both
« Previous Day
Next Day »
Daily Weekly Monthly Yearly Custom
  High: Low: Average:
Temperature: TemperatureF °F 13.4 °F 19.2 °F
Dew Point: DewpointF °F 7.2 °F 13.6 °F
Humidity: Humidity% 67% 78%
Wind Speed: WindSpeedMPHmph 0.0mph 9.3mph
Wind Gust: WindSpeedGustMPHmph - -
Wind- - SW
Pressure: PressureIn in 29.99 in -
Precipitation: 0.00 in    
Historical Graphs
 
 
Tabular Data for January 18, 2018
Time Temperature Dew Point Pressure Wind Wind Speed Wind Gust Humidity Rainfall Rate (Hourly)
TemperatureF °F DewpointF °F PressureIn in Calm     Humidity% HourlyPrecipIn in
00:04 15.5 °F 9.9 °F 30.17 in SW 10.0 mph 20.0 mph 78% 0.00 in
00:09 15.4 °F 9.8 °F 30.17 in SW 10.0 mph 20.0 mph 78% 0.00 in
00:14 15.5 °F 9.9 °F 30.17 in WSW 10.0 mph 19.0 mph 78% 0.00 in
00:19 15.5 °F 9.9 °F 30.17 in SSW 7.0 mph 16.0 mph 78% 0.00 in
00:24 15.4 °F 9.5 °F 30.17 in ESE 10.0 mph 17.0 mph 77% 0.00 in
00:29 15.2 °F 9.3 °F 30.16 in SW 4.0 mph 19.0 mph 77% 0.00 in
00:34 15.2 °F 9.3 °F 30.16 in SSE 6.0 mph 20.0 mph 77% 0.00 in
00:39 15.1 °F 9.2 °F 30.16 in SSW 7.0 mph 20.0 mph 77% 0.00 in
00:44 15.1 °F 9.2 °F 30.16 in SSW 7.0 mph 17.0 mph 77% 0.00 in
00:49 15.0 °F 8.8 °F 30.15 in SSW 7.0 mph 19.0 mph 76% 0.00 in
00:54 14.7 °F 8.5 °F 30.15 in SSW 7.0 mph 19.0 mph 76% 0.00 in
00:59 14.6 °F 8.4 °F 30.15 in SSW 7.0 mph 16.0 mph 76% 0.00 in
01:04 14.5 °F 8.3 °F 30.15 in SW 7.0 mph 15.0 mph 76% 0.00 in
01:09 14.4 °F 8.2 °F 30.15 in SSW 7.0 mph 15.0 mph 76% 0.00 in
01:14 14.2 °F 8.0 °F 30.14 in SW 4.0 mph 13.0 mph 76% 0.00 in
01:19 14.1 °F 7.9 °F 30.14 in SW 5.0 mph 14.0 mph 76% 0.00 in
01:24 14.0 °F 7.8 °F 30.14 in SSW 8.0 mph 12.0 mph 76% 0.00 in
01:29 13.9 °F 7.7 °F 30.14 in SW 3.0 mph 14.0 mph 76% 0.00 in
01:34 13.8 °F 7.6 °F 30.14 in SW 9.0 mph 15.0 mph 76% 0.00 in
01:39 13.8 °F 7.6 °F 30.14 in South 5.0 mph 14.0 mph 76% 0.00 in
01:44 13.6 °F 7.4 °F 30.14 in SW 7.0 mph 16.0 mph 76% 0.00 in
01:49 13.5 °F 7.3 °F 30.14 in SW 7.0 mph 16.0 mph 76% 0.00 in
01:54 13.5 °F 7.3 °F 30.14 in SW 6.0 mph 15.0 mph 76% 0.00 in
01:59 13.4 °F 7.2 °F 30.14 in SW 6.0 mph 13.0 mph 76% 0.00 in
02:04 13.5 °F 7.3 °F 30.14 in SW 7.0 mph 16.0 mph 76% 0.00 in
02:09 13.9 °F 7.7 °F 30.14 in South 8.0 mph 15.0 mph 76% 0.00 in
02:14 14.2 °F 7.7 °F 30.13 in SW 8.0 mph 17.0 mph 75% 0.00 in
02:19 14.4 °F 7.6 °F 30.13 in SW 14.0 mph 15.0 mph 74% 0.00 in
02:24 14.6 °F 7.8 °F 30.13 in South 7.0 mph 14.0 mph 74% 0.00 in
02:29 14.7 °F 7.6 °F 30.13 in SW 9.0 mph 15.0 mph 73% 0.00 in
02:34 14.8 °F 7.4 °F 30.13 in SW 14.0 mph 17.0 mph 72% 0.00 in
02:39 15.0 °F 7.6 °F 30.13 in WSW 9.0 mph 15.0 mph 72% 0.00 in
02:44 15.1 °F 7.7 °F 30.13 in WSW 6.0 mph 18.0 mph 72% 0.00 in
02:49 15.1 °F 7.7 °F 30.14 in SW 7.0 mph 14.0 mph 72% 0.00 in
02:54 15.2 °F 7.5 °F 30.14 in SW 9.0 mph 18.0 mph 71% 0.00 in
02:59 15.2 °F 7.5 °F 30.14 in SW 8.0 mph 18.0 mph 71% 0.00 in
03:04 15.3 °F 7.6 °F 30.13 in SW 8.0 mph 18.0 mph 71% 0.00 in
03:09 15.5 °F 7.5 °F 30.14 in SW 10.0 mph 18.0 mph 70% 0.00 in
03:14 15.7 °F 7.6 °F 30.14 in SW 9.0 mph 17.0 mph 70% 0.00 in
03:19 15.7 °F 7.6 °F 30.14 in SW 9.0 mph 17.0 mph 70% 0.00 in
03:24 15.8 °F 7.7 °F 30.14 in WSW 10.0 mph 19.0 mph 70% 0.00 in
03:29 15.9 °F 7.8 °F 30.14 in WSW 10.0 mph 17.0 mph 70% 0.00 in
03:34 15.9 °F 7.8 °F 30.13 in SW 17.0 mph 17.0 mph 70% 0.00 in
03:39 15.9 °F 8.2 °F 30.13 in WSW 13.0 mph 20.0 mph 71% 0.00 in
03:44 15.9 °F 8.2 °F 30.13 in SW 10.0 mph 20.0 mph 71% 0.00 in
03:49 15.8 °F 8.1 °F 30.13 in SW 11.0 mph 20.0 mph 71% 0.00 in
03:54 15.9 °F 8.5 °F 30.13 in SW 9.0 mph 20.0 mph 72% 0.00 in
03:59 16.1 °F 8.7 °F 30.13 in WSW 9.0 mph 18.0 mph 72% 0.00 in
04:04 16.2 °F 9.1 °F 30.13 in WSW 6.0 mph 19.0 mph 73% 0.00 in
04:14 16.5 °F 10.0 °F 30.12 in WSW 9.0 mph 18.0 mph 75% 0.00 in
04:19 16.9 °F 10.6 °F 30.12 in WSW 11.0 mph 19.0 mph 76% 0.00 in
04:24 17.1 °F 10.8 °F 30.12 in WSW 9.0 mph 18.0 mph 76% 0.00 in
04:29 17.1 °F 10.8 °F 30.12 in WSW 10.0 mph 18.0 mph 76% 0.00 in
04:34 17.3 °F 11.0 °F 30.12 in SW 11.0 mph 23.0 mph 76% 0.00 in
04:39 17.3 °F 11.3 °F 30.12 in WSW 17.0 mph 21.0 mph 77% 0.00 in
04:44 17.4 °F 11.4 °F 30.11 in SW 9.0 mph 19.0 mph 77% 0.00 in
04:49 17.5 °F 11.5 °F 30.11 in WSW 12.0 mph 21.0 mph 77% 0.00 in
04:54 17.4 °F 11.7 °F 30.11 in West 15.0 mph 23.0 mph 78% 0.00 in
04:59 17.4 °F 12.0 °F 30.11 in WSW 13.0 mph 23.0 mph 79% 0.00 in
05:04 17.2 °F 12.1 °F 30.11 in WSW 13.0 mph 22.0 mph 80% 0.00 in
05:09 17.2 °F 12.1 °F 30.10 in WSW 12.0 mph 21.0 mph 80% 0.00 in
05:14 17.2 °F 12.1 °F 30.10 in SSW 7.0 mph 24.0 mph 80% 0.00 in
05:19 17.2 °F 12.4 °F 30.10 in SW 11.0 mph 22.0 mph 81% 0.00 in
05:24 17.1 °F 12.3 °F 30.10 in SW 11.0 mph 20.0 mph 81% 0.00 in
05:29 17.0 °F 12.2 °F 30.10 in WSW 12.0 mph 24.0 mph 81% 0.00 in
05:34 17.0 °F 12.2 °F 30.10 in WSW 12.0 mph 25.0 mph 81% 0.00 in
05:39 17.0 °F 12.2 °F 30.10 in WSW 13.0 mph 25.0 mph 81% 0.00 in
05:44 17.0 °F 12.5 °F 30.10 in WSW 13.0 mph 25.0 mph 82% 0.00 in
05:49 17.1 °F 12.6 °F 30.10 in WSW 14.0 mph 27.0 mph 82% 0.00 in
05:54 17.1 °F 12.3 °F 30.10 in SW 14.0 mph 26.0 mph 81% 0.00 in
05:59 17.0 °F 12.5 °F 30.11 in WSW 13.0 mph 26.0 mph 82% 0.00 in
06:04 17.1 °F 12.6 °F 30.11 in WSW 13.0 mph 24.0 mph 82% 0.00 in
06:09 17.1 °F 12.6 °F 30.11 in SW 11.0 mph 27.0 mph 82% 0.00 in
06:14 17.1 °F 12.6 °F 30.11 in WSW 10.0 mph 23.0 mph 82% 0.00 in
06:19 17.2 °F 12.6 °F 30.11 in WSW 11.0 mph 22.0 mph 82% 0.00 in
06:24 17.1 °F 12.6 °F 30.11 in SSW 9.0 mph 25.0 mph 82% 0.00 in
06:29 17.1 °F 12.6 °F 30.11 in WSW 10.0 mph 21.0 mph 82% 0.00 in
06:34 17.2 °F 12.6 °F 30.11 in WSW 13.0 mph 23.0 mph 82% 0.00 in
06:39 17.2 °F 12.6 °F 30.11 in WSW 14.0 mph 23.0 mph 82% 0.00 in
06:44 17.2 °F 12.6 °F 30.11 in WSW 13.0 mph 24.0 mph 82% 0.00 in
06:49 17.3 °F 12.7 °F 30.11 in WSW 13.0 mph 24.0 mph 82% 0.00 in
06:54 17.3 °F 12.7 °F 30.11 in WSW 13.0 mph 23.0 mph 82% 0.00 in
06:59 17.3 °F 12.7 °F 30.11 in WSW 12.0 mph 23.0 mph 82% 0.00 in
07:04 17.3 °F 12.7 °F 30.11 in WSW 12.0 mph 21.0 mph 82% 0.00 in
07:09 17.4 °F 12.8 °F 30.11 in WSW 18.0 mph 27.0 mph 82% 0.00 in
07:14 17.4 °F 12.8 °F 30.11 in WSW 15.0 mph 27.0 mph 82% 0.00 in
07:19 17.4 °F 13.1 °F 30.11 in WSW 20.0 mph 25.0 mph 83% 0.00 in
07:24 17.4 °F 13.1 °F 30.11 in WSW 20.0 mph 32.0 mph 83% 0.00 in
07:29 17.5 °F 13.2 °F 30.11 in WSW 19.0 mph 24.0 mph 83% 0.00 in
07:34 17.5 °F 13.2 °F 30.11 in SW 14.0 mph 25.0 mph 83% 0.00 in
07:39 17.5 °F 13.2 °F 30.11 in WSW 12.0 mph 27.0 mph 83% 0.00 in
07:44 17.5 °F 13.2 °F 30.11 in WSW 14.0 mph 27.0 mph 83% 0.00 in
07:49 17.6 °F 13.3 °F 30.11 in WSW 14.0 mph 27.0 mph 83% 0.00 in
07:54 17.7 °F 13.4 °F 30.11 in WSW 13.0 mph 27.0 mph 83% 0.00 in
07:59 17.7 °F 13.4 °F 30.11 in WSW 12.0 mph 25.0 mph 83% 0.00 in
08:04 17.7 °F 13.4 °F 30.11 in WSW 11.0 mph 22.0 mph 83% 0.00 in
08:09 17.8 °F 13.5 °F 30.11 in SW 12.0 mph 22.0 mph 83% 0.00 in
08:14 17.8 °F 13.5 °F 30.11 in WSW 11.0 mph 24.0 mph 83% 0.00 in
08:19 17.8 °F 13.5 °F 30.11 in WSW 11.0 mph 24.0 mph 83% 0.00 in
08:24 17.8 °F 13.5 °F 30.11 in SW 16.0 mph 20.0 mph 83% 0.00 in
08:29 17.7 °F 13.4 °F 30.12 in SW 10.0 mph 19.0 mph 83% 0.00 in
08:34 17.8 °F 13.5 °F 30.12 in WSW 16.0 mph 22.0 mph 83% 0.00 in
08:39 17.8 °F 13.8 °F 30.12 in SSW 13.0 mph 21.0 mph 84% 0.00 in
08:44 17.9 °F 13.9 °F 30.12 in West 15.0 mph 19.0 mph 84% 0.00 in
08:49 17.9 °F 13.9 °F 30.12 in WSW 11.0 mph 20.0 mph 84% 0.00 in
08:54 17.9 °F 13.9 °F 30.12 in WSW 11.0 mph 23.0 mph 84% 0.00 in
08:59 17.9 °F 13.9 °F 30.12 in WSW 12.0 mph 23.0 mph 84% 0.00 in
09:04 17.9 °F 13.9 °F 30.12 in WSW 12.0 mph 25.0 mph 84% 0.00 in
09:09 17.9 °F 13.9 °F 30.13 in SW 15.0 mph 17.0 mph 84% 0.00 in
09:14 18.0 °F 14.3 °F 30.13 in WSW 10.0 mph 18.0 mph 85% 0.00 in
09:19 18.0 °F 14.0 °F 30.13 in WSW 11.0 mph 16.0 mph 84% 0.00 in
09:24 17.9 °F 14.2 °F 30.13 in WSW 11.0 mph 17.0 mph 85% 0.00 in
09:29 17.9 °F 14.2 °F 30.13 in WSW 11.0 mph 22.0 mph 85% 0.00 in
09:34 17.9 °F 14.2 °F 30.13 in SW 11.0 mph 22.0 mph 85% 0.00 in
09:39 17.9 °F 14.2 °F 30.13 in SW 8.0 mph 22.0 mph 85% 0.00 in
09:44 18.0 °F 14.3 °F 30.13 in SSW 10.0 mph 17.0 mph 85% 0.00 in
09:49 18.0 °F 14.3 °F 30.13 in West 16.0 mph 23.0 mph 85% 0.00 in
09:54 18.0 °F 14.3 °F 30.13 in WSW 12.0 mph 23.0 mph 85% 0.00 in
09:59 18.1 °F 14.4 °F 30.13 in WSW 11.0 mph 22.0 mph 85% 0.00 in
10:04 18.1 °F 14.4 °F 30.13 in WSW 11.0 mph 20.0 mph 85% 0.00 in
10:09 18.1 °F 14.4 °F 30.14 in WSW 12.0 mph 20.0 mph 85% 0.00 in
10:14 18.2 °F 14.4 °F 30.14 in SW 17.0 mph 23.0 mph 85% 0.00 in
10:19 18.2 °F 14.2 °F 30.14 in West 11.0 mph 23.0 mph 84% 0.00 in
10:24 18.2 °F 14.2 °F 30.14 in SSW 11.0 mph 21.0 mph 84% 0.00 in
10:29 18.2 °F 14.2 °F 30.14 in WSW 11.0 mph 21.0 mph 84% 0.00 in
10:34 18.3 °F 14.3 °F 30.14 in WSW 12.0 mph 20.0 mph 84% 0.00 in
10:39 18.4 °F 14.4 °F 30.14 in WSW 10.0 mph 20.0 mph 84% 0.00 in
10:44 18.4 °F 14.4 °F 30.13 in WSW 15.0 mph 21.0 mph 84% 0.00 in
10:49 18.5 °F 14.5 °F 30.13 in West 12.0 mph 23.0 mph 84% 0.00 in
10:54 18.5 °F 14.5 °F 30.13 in SSW 10.0 mph 25.0 mph 84% 0.00 in
10:59 18.6 °F 14.3 °F 30.14 in WSW 10.0 mph 21.0 mph 83% 0.00 in
11:04 18.5 °F 14.2 °F 30.14 in WSW 12.0 mph 24.0 mph 83% 0.00 in
11:09 18.6 °F 14.3 °F 30.14 in WSW 11.0 mph 24.0 mph 83% 0.00 in
11:14 18.7 °F 14.4 °F 30.14 in WSW 11.0 mph 16.0 mph 83% 0.00 in
11:19 18.6 °F 14.3 °F 30.13 in SSW 9.0 mph 20.0 mph 83% 0.00 in
11:24 18.7 °F 14.4 °F 30.14 in WSW 13.0 mph 22.0 mph 83% 0.00 in
11:29 18.9 °F 14.6 °F 30.13 in West 16.0 mph 19.0 mph 83% 0.00 in
11:34 18.8 °F 14.5 °F 30.13 in WSW 11.0 mph 21.0 mph 83% 0.00 in
11:39 18.8 °F 14.5 °F 30.13 in WSW 11.0 mph 21.0 mph 83% 0.00 in
11:44 18.8 °F 14.5 °F 30.13 in SW 10.0 mph 22.0 mph 83% 0.00 in
11:49 18.9 °F 14.6 °F 30.13 in WSW 11.0 mph 22.0 mph 83% 0.00 in
11:54 18.9 °F 14.6 °F 30.12 in West 13.0 mph 21.0 mph 83% 0.00 in
11:59 18.9 °F 14.6 °F 30.12 in West 8.0 mph 22.0 mph 83% 0.00 in
12:04 19.1 °F 14.8 °F 30.11 in SSE 11.0 mph 17.0 mph 83% 0.00 in
12:09 19.1 °F 14.8 °F 30.11 in SW 11.0 mph 20.0 mph 83% 0.00 in
12:14 19.3 °F 15.0 °F 30.11 in West 8.0 mph 17.0 mph 83% 0.00 in
12:19 19.3 °F 15.0 °F 30.11 in WSW 5.0 mph 19.0 mph 83% 0.00 in
12:24 19.4 °F 15.1 °F 30.11 in WSW 7.0 mph 17.0 mph 83% 0.00 in
12:29 19.5 °F 15.2 °F 30.11 in WSW 7.0 mph 20.0 mph 83% 0.00 in
12:34 19.6 °F 15.3 °F 30.11 in WSW 8.0 mph 16.0 mph 83% 0.00 in
12:39 19.4 °F 15.1 °F 30.10 in SW 10.0 mph 22.0 mph 83% 0.00 in
12:44 19.5 °F 15.2 °F 30.10 in SW 10.0 mph 22.0 mph 83% 0.00 in
12:49 19.3 °F 15.0 °F 30.10 in SW 10.0 mph 24.0 mph 83% 0.00 in
12:54 19.3 °F 15.0 °F 30.10 in SW 11.0 mph 24.0 mph 83% 0.00 in
12:59 19.3 °F 15.0 °F 30.09 in SW 11.0 mph 19.0 mph 83% 0.00 in
13:04 19.3 °F 15.0 °F 30.09 in SW 10.0 mph 21.0 mph 83% 0.00 in
13:09 19.2 °F 14.9 °F 30.09 in WSW 6.0 mph 22.0 mph 83% 0.00 in
13:14 19.2 °F 14.9 °F 30.09 in SW 11.0 mph 22.0 mph 83% 0.00 in
13:19 19.2 °F 14.9 °F 30.09 in SW 16.0 mph 21.0 mph 83% 0.00 in
13:24 19.2 °F 15.2 °F 30.08 in West 10.0 mph 22.0 mph 84% 0.00 in
13:29 19.2 °F 14.9 °F 30.08 in SW 12.0 mph 20.0 mph 83% 0.00 in
13:34 19.3 °F 15.3 °F 30.08 in SW 20.0 mph 20.0 mph 84% 0.00 in
13:39 19.4 °F 15.4 °F 30.08 in SSW 10.0 mph 20.0 mph 84% 0.00 in
13:44 19.4 °F 15.4 °F 30.08 in WSW 6.0 mph 21.0 mph 84% 0.00 in
13:49 19.5 °F 15.5 °F 30.08 in SW 11.0 mph 22.0 mph 84% 0.00 in
13:54 19.5 °F 15.5 °F 30.08 in SW 12.0 mph 25.0 mph 84% 0.00 in
13:59 19.6 °F 15.6 °F 30.08 in SW 11.0 mph 25.0 mph 84% 0.00 in
14:04 19.8 °F 15.7 °F 30.08 in SW 10.0 mph 20.0 mph 84% 0.00 in
14:09 19.8 °F 15.7 °F 30.08 in WSW 11.0 mph 19.0 mph 84% 0.00 in
14:14 19.9 °F 15.8 °F 30.08 in WSW 11.0 mph 23.0 mph 84% 0.00 in
14:19 20.0 °F 15.9 °F 30.08 in WSW 11.0 mph 26.0 mph 84% 0.00 in
14:24 20.0 °F 15.7 °F 30.08 in WSW 11.0 mph 26.0 mph 83% 0.00 in
14:29 20.1 °F 15.8 °F 30.08 in SW 11.0 mph 26.0 mph 83% 0.00 in
14:34 20.1 °F 15.8 °F 30.08 in West 10.0 mph 24.0 mph 83% 0.00 in
14:39 20.1 °F 15.8 °F 30.08 in West 20.0 mph 26.0 mph 83% 0.00 in
14:44 20.1 °F 15.8 °F 30.08 in West 10.0 mph 23.0 mph 83% 0.00 in
14:49 20.2 °F 15.9 °F 30.08 in SW 13.0 mph 20.0 mph 83% 0.00 in
14:54 20.2 °F 15.9 °F 30.09 in SW 14.0 mph 22.0 mph 83% 0.00 in
14:59 20.3 °F 16.0 °F 30.08 in WSW 12.0 mph 22.0 mph 83% 0.00 in
15:04 20.4 °F 16.1 °F 30.08 in SW 11.0 mph 22.0 mph 83% 0.00 in
15:09 20.5 °F 16.2 °F 30.08 in SW 10.0 mph 19.0 mph 83% 0.00 in
15:14 20.5 °F 15.9 °F 30.08 in South 10.0 mph 21.0 mph 82% 0.00 in
15:19 20.6 °F 16.0 °F 30.08 in WSW 10.0 mph 21.0 mph 82% 0.00 in
15:24 20.7 °F 16.1 °F 30.08 in WSW 12.0 mph 16.0 mph 82% 0.00 in
15:29 20.9 °F 16.3 °F 30.08 in WSW 13.0 mph 15.0 mph 82% 0.00 in
15:34 21.0 °F 16.4 °F 30.08 in WSW 10.0 mph 16.0 mph 82% 0.00 in
15:39 21.0 °F 16.1 °F 30.07 in WSW 10.0 mph 16.0 mph 81% 0.00 in
15:44 21.0 °F 16.1 °F 30.08 in WSW 9.0 mph 17.0 mph 81% 0.00 in
15:49 21.0 °F 16.1 °F 30.07 in WSW 12.0 mph 20.0 mph 81% 0.00 in
15:59 21.1 °F 16.2 °F 30.06 in SW 8.0 mph 20.0 mph 81% 0.00 in
16:04 21.2 °F 16.3 °F 30.06 in WSW 8.0 mph 20.0 mph 81% 0.00 in
16:09 21.3 °F 16.1 °F 30.06 in WSW 11.0 mph 25.0 mph 80% 0.00 in
16:14 21.3 °F 16.1 °F 30.06 in WSW 10.0 mph 25.0 mph 80% 0.00 in
16:19 21.2 °F 16.0 °F 30.06 in WSW 9.0 mph 18.0 mph 80% 0.00 in
16:24 21.1 °F 15.6 °F 30.06 in WSW 9.0 mph 17.0 mph 79% 0.00 in
16:29 21.1 °F 15.6 °F 30.06 in WSW 8.0 mph 17.0 mph 79% 0.00 in
16:34 21.1 °F 15.6 °F 30.06 in WSW 9.0 mph 18.0 mph 79% 0.00 in
16:39 21.1 °F 15.6 °F 30.06 in WSW 9.0 mph 19.0 mph 79% 0.00 in
16:44 21.0 °F 15.5 °F 30.06 in WSW 4.0 mph 14.0 mph 79% 0.00 in
16:49 20.9 °F 15.4 °F 30.05 in West 16.0 mph 16.0 mph 79% 0.00 in
16:54 20.9 °F 15.4 °F 30.05 in WSW 7.0 mph 18.0 mph 79% 0.00 in
16:59 20.9 °F 15.4 °F 30.05 in WSW 6.0 mph 19.0 mph 79% 0.00 in
17:04 20.9 °F 15.4 °F 30.06 in WSW 10.0 mph 18.0 mph 79% 0.00 in
17:09 21.0 °F 15.5 °F 30.05 in WSW 7.0 mph 14.0 mph 79% 0.00 in
17:14 21.0 °F 15.5 °F 30.05 in WSW 9.0 mph 18.0 mph 79% 0.00 in
17:19 21.1 °F 15.6 °F 30.06 in WSW 9.0 mph 18.0 mph 79% 0.00 in
17:24 21.2 °F 15.4 °F 30.05 in WSW 10.0 mph 17.0 mph 78% 0.00 in
17:29 21.2 °F 15.4 °F 30.05 in WSW 9.0 mph 17.0 mph 78% 0.00 in
17:34 21.2 °F 15.4 °F 30.05 in West 7.0 mph 14.0 mph 78% 0.00 in
17:39 21.3 °F 15.5 °F 30.05 in WSW 5.0 mph 17.0 mph 78% 0.00 in
17:44 21.4 °F 15.6 °F 30.05 in SSW 7.0 mph 13.0 mph 78% 0.00 in
17:49 21.4 °F 15.6 °F 30.05 in WSW 6.0 mph 13.0 mph 78% 0.00 in
17:54 21.6 °F 15.8 °F 30.05 in WSW 8.0 mph 15.0 mph 78% 0.00 in
17:59 21.7 °F 15.9 °F 30.06 in WSW 9.0 mph 16.0 mph 78% 0.00 in
18:04 21.8 °F 16.0 °F 30.05 in West 6.0 mph 15.0 mph 78% 0.00 in
18:09 21.9 °F 16.1 °F 30.05 in West 4.0 mph 14.0 mph 78% 0.00 in
18:14 22.0 °F 16.2 °F 30.06 in WSW 5.0 mph 13.0 mph 78% 0.00 in
18:19 22.1 °F 16.3 °F 30.06 in SSE 4.0 mph 14.0 mph 78% 0.00 in
18:24 22.1 °F 16.3 °F 30.06 in WSW 7.0 mph 18.0 mph 78% 0.00 in
18:29 22.1 °F 16.3 °F 30.06 in WSW 7.0 mph 18.0 mph 78% 0.00 in
18:34 22.1 °F 16.3 °F 30.06 in WSW 12.0 mph 12.0 mph 78% 0.00 in
18:39 22.1 °F 16.3 °F 30.06 in SW 5.0 mph 13.0 mph 78% 0.00 in
18:44 22.1 °F 16.3 °F 30.06 in SW 5.0 mph 15.0 mph 78% 0.00 in
18:49 22.1 °F 16.3 °F 30.06 in SW 7.0 mph 10.0 mph 78% 0.00 in
18:54 22.1 °F 16.6 °F 30.06 in SW 8.0 mph 14.0 mph 79% 0.00 in
18:59 22.1 °F 16.6 °F 30.06 in SW 7.0 mph 14.0 mph 79% 0.00 in
19:04 22.1 °F 16.6 °F 30.05 in SW 6.0 mph 13.0 mph 79% 0.00 in
19:09 22.1 °F 16.6 °F 30.05 in SW 6.0 mph 12.0 mph 79% 0.00 in
19:14 22.0 °F 16.5 °F 30.05 in SW 6.0 mph 12.0 mph 79% 0.00 in
19:19 22.0 °F 16.8 °F 30.05 in Calm   9.0 mph 80% 0.00 in
19:24 21.8 °F 16.6 °F 30.05 in SW 2.0 mph 10.0 mph 80% 0.00 in
19:29 21.6 °F 16.4 °F 30.04 in SSW 4.0 mph 10.0 mph 80% 0.00 in
19:34 21.4 °F 16.2 °F 30.04 in SSW 4.0 mph 8.0 mph 80% 0.00 in
19:39 21.1 °F 15.9 °F 30.04 in SSW 3.0 mph 7.0 mph 80% 0.00 in
19:44 20.9 °F 15.7 °F 30.04 in SSW 3.0 mph 8.0 mph 80% 0.00 in
19:49 20.8 °F 15.6 °F 30.04 in SW 3.0 mph 7.0 mph 80% 0.00 in
19:54 20.8 °F 15.3 °F 30.04 in SSW 4.0 mph 10.0 mph 79% 0.00 in
19:59 20.7 °F 14.9 °F 30.04 in South 3.0 mph 9.0 mph 78% 0.00 in
20:04 20.7 °F 14.9 °F 30.03 in SSW 5.0 mph 11.0 mph 78% 0.00 in
20:09 20.7 °F 14.6 °F 30.03 in SSW 5.0 mph 11.0 mph 77% 0.00 in
20:14 20.8 °F 14.4 °F 30.03 in SSW 5.0 mph 11.0 mph 76% 0.00 in
20:19 20.8 °F 14.1 °F 30.03 in SSW 5.0 mph 12.0 mph 75% 0.00 in
20:24 20.8 °F 14.1 °F 30.02 in SW 5.0 mph 8.0 mph 75% 0.00 in
20:29 20.9 °F 13.9 °F 30.02 in SSW 2.0 mph 7.0 mph 74% 0.00 in
20:34 20.9 °F 13.9 °F 30.02 in SW 5.0 mph 7.0 mph 74% 0.00 in
20:39 21.2 °F 14.2 °F 30.01 in SSW 4.0 mph 8.0 mph 74% 0.00 in
20:44 21.3 °F 14.3 °F 30.02 in SSW 5.0 mph 11.0 mph 74% 0.00 in
20:49 21.5 °F 14.2 °F 30.02 in SSW 3.0 mph 9.0 mph 73% 0.00 in
20:54 21.6 °F 14.3 °F 30.02 in SW 5.0 mph 11.0 mph 73% 0.00 in
20:59 21.8 °F 14.5 °F 30.01 in SW 3.0 mph 11.0 mph 73% 0.00 in
21:04 21.9 °F 14.3 °F 30.00 in SSW 3.0 mph 10.0 mph 72% 0.00 in
21:09 22.1 °F 14.4 °F 30.00 in SW 5.0 mph 15.0 mph 72% 0.00 in
21:14 22.3 °F 14.6 °F 30.00 in SW 6.0 mph 15.0 mph 72% 0.00 in
21:19 22.5 °F 14.8 °F 30.00 in SW 6.0 mph 12.0 mph 72% 0.00 in
21:24 22.7 °F 15.0 °F 30.00 in SW 7.0 mph 13.0 mph 72% 0.00 in
21:29 23.1 °F 15.1 °F 30.00 in SW 7.0 mph 13.0 mph 71% 0.00 in
21:34 23.3 °F 15.3 °F 30.00 in SW 6.0 mph 12.0 mph 71% 0.00 in
21:39 23.5 °F 15.1 °F 29.99 in SSW 11.0 mph 13.0 mph 70% 0.00 in
21:44 23.7 °F 15.3 °F 30.00 in SW 7.0 mph 16.0 mph 70% 0.00 in
21:49 23.9 °F 15.5 °F 30.00 in SW 5.0 mph 14.0 mph 70% 0.00 in
21:54 24.2 °F 15.8 °F 30.00 in SW 9.0 mph 15.0 mph 70% 0.00 in
21:59 24.4 °F 16.0 °F 30.00 in SW 4.0 mph 16.0 mph 70% 0.00 in
22:04 24.7 °F 16.3 °F 30.00 in SSW 7.0 mph 14.0 mph 70% 0.00 in
22:09 24.9 °F 16.2 °F 30.00 in SW 5.0 mph 18.0 mph 69% 0.00 in
22:14 25.0 °F 16.3 °F 29.99 in SSW 8.0 mph 13.0 mph 69% 0.00 in
22:19 25.2 °F 16.5 °F 29.99 in SSW 7.0 mph 18.0 mph 69% 0.00 in
22:24 25.3 °F 16.5 °F 29.99 in SSW 6.0 mph 18.0 mph 69% 0.00 in
22:29 25.4 °F 16.6 °F 29.99 in SSW 6.0 mph 17.0 mph 69% 0.00 in
22:34 25.5 °F 16.4 °F 29.99 in SSW 6.0 mph 13.0 mph 68% 0.00 in
22:39 25.6 °F 16.8 °F 29.99 in SW 6.0 mph 13.0 mph 69% 0.00 in
22:44 25.8 °F 16.7 °F 29.99 in WSW 15.0 mph 15.0 mph 68% 0.00 in
22:49 25.9 °F 16.8 °F 29.99 in SSW 7.0 mph 14.0 mph 68% 0.00 in
22:54 26.1 °F 17.0 °F 29.99 in SW 8.0 mph 16.0 mph 68% 0.00 in
22:59 26.1 °F 17.0 °F 29.99 in SW 14.0 mph 17.0 mph 68% 0.00 in
23:04 26.2 °F 17.1 °F 29.99 in SSW 2.0 mph 19.0 mph 68% 0.00 in
23:09 26.2 °F 16.7 °F 29.99 in West 5.0 mph 13.0 mph 67% 0.00 in
23:14 26.1 °F 16.6 °F 29.99 in SW 8.0 mph 11.0 mph 67% 0.00 in
23:19 26.1 °F 16.6 °F 29.99 in South 5.0 mph 11.0 mph 67% 0.00 in
23:24 26.1 °F 16.6 °F 29.99 in SW 7.0 mph 12.0 mph 67% 0.00 in
23:29 26.1 °F 16.6 °F 30.00 in SW 7.0 mph 12.0 mph 67% 0.00 in
23:34 26.1 °F 16.6 °F 30.00 in SW 7.0 mph 13.0 mph 67% 0.00 in
23:39 26.3 °F 16.8 °F 30.00 in SW 8.0 mph 15.0 mph 67% 0.00 in
23:44 26.3 °F 16.8 °F 30.00 in WSW 7.0 mph 13.0 mph 67% 0.00 in
23:49 26.2 °F 16.7 °F 30.00 in SSW 5.0 mph 13.0 mph 67% 0.00 in
23:54 26.1 °F 16.6 °F 30.00 in SW 7.0 mph 13.0 mph 67% 0.00 in
23:59 26.0 °F 16.5 °F 29.99 in SW 7.0 mph 13.0 mph 67% 0.00 in
Buffalo, New York, USA
Compliments of Weather Underground - 2.5 mb